ATLAS D DEB, 2327

Orbit data source: Space-Track

ATLAS D DEB, 2327 is space debris in LEO originally from a launch on Thu, 14 Jul 1966 UTC launched from the Air Force Western Test Range (AFWTR). Debris objects in space refer to the collection of defunct objects orbiting the Earth. Examples of debris include non-operational satellites, rocket bodies, and fragments generated from explosions, collisions, or faulty payload assembly.

Loading next visibility...
Identifier
2327, 1966-063B
Orbit
LEO
Last TLE update
21 hours ago
Origin
Manufacturer
Goodyear
Mission
Spacecraft
Bus & Motor
CONTAINER, Unknown motor
Mass
2 kg wet, 2 kg dry
Launch date (UTC)
1966-07-14 (59 years ago)
Launch vehicle
Unknown
Launch site
Air Force Western Test Range (AFWTR)
Object type
Payload
Rocket body
Debris
Shape & HBR
Half Cyl, 0.5 m
Radar Cross Section
0.210 m², Medium (>0.1 m² and < 1m²)

Expand to show TLE details & history

TLE from 21 hours ago
0 ATLAS D DEB
1  2327U 66063B   25182.21318901  .00001109  00000-0  51394-3 0  9994
2  2327 144.1948 274.6106 0029782 127.3537 232.9869 14.04746918989165
Epoch: 2025-07-01T05:06Z
TLE epoch observation values (Epoch: 2025-07-01T05:06:59.53Z)
Latitude
-0.00004°
Longitude
-81.64926°
Altitude
889.495 km
Speed
7.403 km/s
True Right ascension
18h 18m 26s
True Declination
0° 00' 00"
Sunlit
Object was in full shadow at epoch
Visualization orbit readout
Latitude
26.0195°
Longitude
-119.51366°
Altitude
874.853 km
Speed
7.42 km/s
Apparent Right ascension
18h 59m 26s
Apparent Declination
-13° 45' 15"
Sunlit
Object is in daylight
Visualization observer readout
Local Sidereal Time
13:30:03
Azimuth
105.413° ESE
Elevation
-3.056°
Doppler factor
1
Orbital elements
Apogee altitude
901.98 km
Perigee altitude
858.746 km
Semi-major axis
7,258.5 km
Eccentricity
0.00298
Inclination
144.1948°
RAAN
274.6106°
Arg. of periapsis
127.3537°
True anomaly
Unknown
Mean anomaly
232.9869°
Eccentric anomaly
Unknown
Mean motion
3.50972 °/min
Orbital period
102.57 mins
BSTAR
0.00051394
Loading maneuver chart data...
Loading SW <> Apogee altitude chart data...
Loading historical data...
Loading historical data...
Loading historical data...
Loading historical data...
Loading historical data...
Loading historical data...
Loading historical data...

ATLAS D DEB Visibility forecast

Observer location: undefined°, undefined°

Span
Click to sort rows by Start time (UTC) header in descending order
Start Az.
Max El. time (UTC)
Max El. Az.
Max El.
End time (UTC)
End Az.
9 mins2025-07-02 01:53:05.085Z114.35° SE2025-07-02 01:57:05.085Z170.618° S38.067°2025-07-02 02:02:05.085Z263.375° W
7 mins2025-07-02 03:32:05.085Z155.414° SSE2025-07-02 03:35:05.085Z207.748° SW27.183°2025-07-02 03:39:05.085Z260.468° W
7 mins2025-07-02 22:34:05.085Z106.267° ESE2025-07-02 22:37:05.085Z152.152° SSE27.828°2025-07-02 22:41:05.085Z215.699° SW
8 mins2025-07-03 00:11:05.085Z101.166° ESE2025-07-03 00:15:05.085Z189.884° SSW38.425°2025-07-03 00:19:05.085Z246.961° WSW
|